Weather History for KPVU - May, 2013

Change the Weather History Date:

Friday, May 24, 2013

  Actual Average Record
Temperature  
Mean Temperature 60 °F -  
Max Temperature 75 °F 74 °F 91 °F (2003)
Min Temperature 44 °F 46 °F 37 °F (2002)
Degree Days  
Heating Degree Days 6    
Growing Degree Days 10 (Base 50)    
Moisture  
Dew Point 35 °F    
Average Humidity 48    
Maximum Humidity 81    
Minimum Humidity 14    
Precipitation  
Precipitation 0.00 in - - ()
Sea Level Pressure  
Sea Level Pressure 30.00 in    
Wind  
Wind Speed 9 mph (WNW)    
Max Wind Speed 18 mph    
Max Gust Speed 21 mph    
Visibility 12 miles    
Events      
Averages and records for this station are not official NWS values.
T = Trace of Precipitation, MM = Missing Value Source: NWS Daily Summary

Daily Weather History Graph

Daily Weather History Graph

Search for Another Location

Airport or City:

Trip Planner

Search our weather history database for the weather conditions in past years. The results will help you decide how hot, cold, wet, or windy it might be!

Date:

Astronomy

May. 24, 2013 Rise Set
Actual Time 6:03 AM MDT 8:44 PM MDT
Civil Twilight 5:32 AM MDT 9:16 PM MDT
Nautical Twilight 4:52 AM MDT 9:55 PM MDT
Astronomical Twilight 4:07 AM MDT 10:40 PM MDT
Moon 8:30 PM MDT (5/24) 5:38 AM MDT (5/24)
Length of Visible Light 15h 44m
Length of Day
14h 40m
Full, 100% of the Moon is Illuminated
May 24
Full
May 24
Full
May 31
Last Quarter
Jun 8
New
Jun 16
First Quarter

Hourly Weather History & Observations

Time (MDT) Temp. Windchill Dew Point Humidity Pressure Visibility Wind Dir Wind Speed Gust Speed Precip Events Conditions
12:15 AM 55.4 °F - 33.8 °F 44% 29.98 in 10.0 mi NW 17.3 mph - N/A   Clear
12:35 AM 55.4 °F - 33.8 °F 44% 29.99 in 10.0 mi NW 11.5 mph 20.7 mph N/A   Clear
12:55 AM 55.4 °F - 35.6 °F 47% 30.00 in 10.0 mi WNW 12.7 mph - N/A   Clear
1:15 AM 53.6 °F - 35.6 °F 51% 30.01 in 10.0 mi NW 17.3 mph - N/A   Clear
1:35 AM 53.6 °F - 35.6 °F 51% 30.01 in 10.0 mi NW 18.4 mph - N/A   Clear
1:55 AM 53.6 °F - 35.6 °F 51% 30.00 in 10.0 mi WNW 16.1 mph - N/A   Clear
2:15 AM 53.6 °F - 33.8 °F 47% 30.00 in 10.0 mi NW 13.8 mph - N/A   Clear
2:35 AM 50.0 °F - 35.6 °F 58% 30.01 in 10.0 mi ENE 6.9 mph - N/A   Clear
2:55 AM 50.0 °F - 33.8 °F 54% 30.01 in 10.0 mi NNW 3.5 mph - N/A   Clear
3:35 AM 48.2 °F - 37.4 °F 66% 30.02 in 10.0 mi East 3.5 mph - N/A   Clear
3:55 AM 48.2 °F - 37.4 °F 66% 30.03 in 10.0 mi East 3.5 mph - N/A   Clear
4:15 AM 48.2 °F - 37.4 °F 66% 30.03 in 10.0 mi ESE 6.9 mph - N/A   Clear
4:35 AM 48.2 °F - 39.2 °F 71% 30.03 in 10.0 mi Calm Calm - N/A   Clear
4:55 AM 48.2 °F - 37.4 °F 66% 30.04 in 10.0 mi Calm Calm - N/A   Clear
5:15 AM 48.2 °F - 37.4 °F 66% 30.05 in 10.0 mi West 3.5 mph - N/A   Clear
5:35 AM 46.4 °F - 37.4 °F 71% 30.05 in 10.0 mi Calm Calm - N/A   Clear
5:55 AM 46.4 °F 42.4 °F 35.6 °F 66% 30.05 in 10.0 mi WNW 8.1 mph - N/A   Clear
6:15 AM 48.2 °F - 35.6 °F 62% 30.06 in 10.0 mi NNW 6.9 mph - N/A   Clear
6:35 AM 44.6 °F 40.7 °F 35.6 °F 71% 30.07 in 10.0 mi SSE 6.9 mph - N/A   Clear
6:55 AM 44.6 °F 42.2 °F 39.2 °F 81% 30.08 in 15.0 mi SE 4.6 mph - N/A   Clear
7:54 AM 51.8 °F - 39.2 °F 62% 30.09 in 15.0 mi Calm Calm - N/A   Clear
8:56 AM 53.6 °F - 39.2 °F 58% 30.09 in 15.0 mi SW 4.6 mph - N/A   Clear
9:53 AM 55.4 °F - 35.6 °F 47% 30.09 in 15.0 mi SW 5.8 mph - N/A   Clear
10:55 AM 57.2 °F - 37.4 °F 48% 30.08 in 15.0 mi West 6.9 mph - N/A   Clear
11:54 AM 60.8 °F - 35.6 °F 39% 30.07 in 15.0 mi WSW 6.9 mph - N/A   Clear
12:48 PM 64.4 °F - 28.4 °F 26% 30.07 in 15.0 mi WSW 5.8 mph - N/A   Clear
1:47 PM 68.0 °F - 28.4 °F 23% 30.04 in 15.0 mi NW 4.6 mph - N/A   Partly Cloudy
2:51 PM 71.6 °F - 26.6 °F 19% 30.02 in 15.0 mi North 5.8 mph - N/A   Partly Cloudy
3:47 PM 73.4 °F - 26.6 °F 18% 29.99 in 15.0 mi Calm Calm - N/A   Partly Cloudy
4:59 PM 75.2 °F - 24.8 °F 15% 29.95 in 15.0 mi NNW 5.8 mph - N/A   Scattered Clouds
5:47 PM 73.4 °F - 23.0 °F 15% 29.94 in 15.0 mi North 3.5 mph - N/A   Mostly Cloudy
6:57 PM 73.4 °F - 21.2 °F 14% 29.92 in 15.0 mi Calm Calm - N/A   Scattered Clouds
7:49 PM 73.4 °F - 21.2 °F 14% 29.92 in 15.0 mi Calm Calm - N/A   Scattered Clouds
8:48 PM 66.2 °F - 42.8 °F 43% 29.92 in 15.0 mi SE 4.6 mph - N/A   Partly Cloudy
9:15 PM 64.4 °F - 39.2 °F 40% 29.92 in 10.0 mi South 5.8 mph - N/A   Clear
9:35 PM 64.4 °F - 39.2 °F 40% 29.92 in 10.0 mi SSE 3.5 mph - N/A   Clear
9:55 PM 64.4 °F - 37.4 °F 37% 29.93 in 10.0 mi Calm Calm - N/A   Clear
10:15 PM 64.4 °F - 44.6 °F 49% 29.93 in 10.0 mi WNW 5.8 mph - N/A   Clear
10:35 PM 60.8 °F - 42.8 °F 52% 29.93 in 10.0 mi NW 8.1 mph - N/A   Clear
10:55 PM 60.8 °F - 41.0 °F 48% 29.93 in 10.0 mi NW 5.8 mph - N/A   Clear
11:15 PM 62.6 °F - 41.0 °F 45% 29.92 in 10.0 mi NW 4.6 mph - N/A   Clear
11:35 PM 59.0 °F - 42.8 °F 55% 29.91 in 10.0 mi Calm Calm - N/A   Clear
11:55 PM 57.2 °F - 39.2 °F 51% 29.91 in 10.0 mi Calm Calm - N/A   Clear